Slidell, LA

4:07 AM CDT on May 23, 2017 (GMT -0500)
Slidell

Weather History for KASD - January, 2013

Change the Weather History Date:

Thursday, January 24, 2013

  Actual Average (KNEW) Record (KNEW)
Temperature  
Mean Temperature 57 °F -  
Max Temperature 73 °F 61 °F 81 °F (2002)
Min Temperature 41 °F 46 °F 14 °F (1963)
Degree Days  
Heating Degree Days 8    
Growing Degree Days 7 (Base 50)    
Moisture  
Dew Point 48 °F    
Average Humidity 85    
Maximum Humidity 100    
Minimum Humidity 57    
Precipitation  
Precipitation 0.00 in - - ()
Sea Level Pressure  
Sea Level Pressure 30.29 in    
Wind  
Wind Speed 1 mph (SSW)    
Max Wind Speed 8 mph    
Max Gust Speed -    
Visibility 8 miles    
Events Fog    
Averages and records for this station are not official NWS values.
T = Trace of Precipitation, MM = Missing Value Source: NWS Daily Summary

Daily Weather History Graph

Daily Weather History Graph

Search for Another Location

Airport or City:

Trip Planner

Search our weather history database for the weather conditions in past years. The results will help you decide how hot, cold, wet, or windy it might be!

Date:

Astronomy

Jan. 24, 2013 Rise Set
Actual Time 6:54 AM CST 5:29 PM CST
Civil Twilight 6:28 AM CST 5:54 PM CST
Nautical Twilight 5:59 AM CST 6:23 PM CST
Astronomical Twilight 5:30 AM CST 6:52 PM CST
Moon 3:33 PM CST (1/24) 4:49 AM CST (1/24)
Length of Visible Light 11h 26m
Length of Day
10h 35m
Waxing Gibbous, 94% of the Moon is Illuminated
Jan 24
Waxing Gibbous
Jan 26
Full
Feb 3
Last Quarter
Feb 10
New
Feb 17
First Quarter

Hourly Weather History & Observations

Time (CST) Temp. Dew Point Humidity Pressure Visibility Wind Dir Wind Speed Gust Speed Precip Events Conditions
12:53 AM 46.0 °F 45.0 °F 96% 30.30 in 9.0 mi Calm Calm - N/A   Clear
1:53 AM 45.0 °F 43.0 °F 93% 30.30 in 9.0 mi Calm Calm - N/A   Clear
2:53 AM 44.1 °F 42.1 °F 93% 30.29 in 9.0 mi Calm Calm - N/A   Clear
3:26 AM 42.8 °F 41.0 °F 93% 30.28 in 10.0 mi Calm Calm - N/A   Partly Cloudy
3:53 AM 43.0 °F 41.0 °F 93% 30.29 in 10.0 mi Calm Calm - N/A   Clear
4:00 AM 42.8 °F 39.2 °F 87% 30.28 in 10.0 mi Calm Calm - N/A   Scattered Clouds
4:09 AM 42.8 °F 39.2 °F 87% 30.29 in 10.0 mi Calm Calm - N/A   Mostly Cloudy
4:51 AM 42.8 °F 42.8 °F 100% 30.30 in 2.0 mi Calm Calm - N/A   Overcast
4:53 AM 42.1 °F 42.1 °F 100% 30.30 in 2.0 mi Calm Calm - N/A   Overcast
5:00 AM 42.8 °F 42.8 °F 100% 30.30 in 5.0 mi Calm Calm - N/A   Overcast
5:53 AM 42.1 °F 41.0 °F 96% 30.31 in 5.0 mi Calm Calm - N/A   Overcast
6:09 AM 41.0 °F 39.2 °F 93% 30.32 in 1.8 mi Calm Calm - N/A   Overcast
6:20 AM 41.0 °F 41.0 °F 100% 30.32 in 0.5 mi Calm Calm - N/A Fog Fog
6:39 AM 41.0 °F 41.0 °F 100% 30.33 in 2.5 mi Calm Calm - N/A   Overcast
6:46 AM 41.0 °F 41.0 °F 100% 30.32 in 6.0 mi Calm Calm - N/A   Overcast
6:53 AM 42.1 °F 42.1 °F 100% 30.32 in 7.0 mi Calm Calm - N/A   Overcast
7:53 AM 46.9 °F 46.0 °F 97% 30.33 in 5.0 mi Calm Calm - N/A   Scattered Clouds
8:53 AM 57.9 °F 55.0 °F 90% 30.34 in 7.0 mi Calm Calm - N/A   Clear
9:53 AM 64.9 °F 55.0 °F 70% 30.35 in 10.0 mi SSW 8.1 mph - N/A   Clear
10:53 AM 68.0 °F 55.0 °F 63% 30.34 in 10.0 mi Variable 4.6 mph - N/A   Clear
11:53 AM 69.1 °F 55.0 °F 61% 30.32 in 10.0 mi Variable 5.8 mph - N/A   Clear
12:53 PM 70.0 °F 55.9 °F 61% 30.27 in 10.0 mi SW 5.8 mph - N/A   Partly Cloudy
1:53 PM 71.1 °F 55.9 °F 59% 30.26 in 10.0 mi Variable 4.6 mph - N/A   Clear
2:53 PM 73.0 °F 57.0 °F 57% 30.23 in 10.0 mi Variable 4.6 mph - N/A   Clear
3:53 PM 71.1 °F 55.9 °F 59% 30.23 in 10.0 mi SSW 4.6 mph - N/A   Clear
4:53 PM 69.1 °F 55.9 °F 63% 30.23 in 10.0 mi Calm Calm - N/A   Partly Cloudy
5:53 PM 64.9 °F 57.0 °F 75% 30.24 in 10.0 mi South 5.8 mph - N/A   Overcast
6:53 PM 64.9 °F 55.9 °F 73% 30.26 in 10.0 mi SSW 4.6 mph - N/A   Overcast
7:53 PM 64.0 °F 55.9 °F 75% 30.27 in 10.0 mi SSW 5.8 mph - N/A   Mostly Cloudy
8:53 PM 61.0 °F 55.9 °F 83% 30.27 in 10.0 mi Calm Calm - N/A   Clear
9:53 PM 55.9 °F 54.0 °F 93% 30.27 in 10.0 mi Calm Calm - N/A   Clear
10:53 PM 55.0 °F 53.1 °F 93% 30.26 in 10.0 mi Calm Calm - N/A   Clear
11:53 PM 53.1 °F 52.0 °F 96% 30.25 in 10.0 mi Calm Calm - N/A   Clear